Location: 22
(39.7117°N, 89.5929°W)
Time: 09:36:02
(UTC-05:00)

S-56A Canister/Altair - Pass Details

Date: 12 February 2023
Orbit: 638 x 2493 km, 38.9° (Epoch: 25 March)

Event Time Altitude Azimuth Distance (km) Brightness Sun altitude
Rises 06:41:48 0° 218° (SW) 3,828 10.9 -3.2°
Reaches altitude 10° 06:45:17 10° 206° (SSW) 2,597 10.2 -2.6°
Maximum altitude 06:49:55 24° 153° (SSE) 1,524 9.7 -1.7°
Drops below altitude 10° 06:53:45 10° 99° (E) 2,108 11.9 -1.0°
Sets 06:56:15 0° 85° (E) 2,953 12.0 -0.5°
